CW9120 Weather Reports


time (UTC)temp
C
wind
direction
speed
KPH
gust
KPH
rain 1hr
cm
rain 24hr
cm
rain mn
cm
humidity
%
barometer
mb
20260507014535 15 147 3.2 14.5 0.00 0.00 0.00 57 1017.9
20260507013038 15 148 0.0 14.5 0.00 0.00 0.00 57 1017.9
20260507011539 15 128 1.6 16.1 0.00 0.00 0.00 56 1017.9
20260507010034 15 153 3.2 12.9 0.00 0.00 0.00 54 1017.8
20260507004531 16 144 1.6 8.0 0.00 0.00 0.00 53 1017.8
20260507003030 16 113 3.2 14.5 0.00 0.00 0.00 52 1017.8
20260507001531 16 145 0.0 12.9 0.00 0.00 0.00 52 1018.0
20260507000028 16 155 1.6 14.5 0.00 0.00 0.00 51 1017.9
20260506234540 16 130 4.8 16.1 0.00 0.00 0.00 51 1017.9
20260506233029 16 121 1.6 11.3 0.00 0.00 0.00 51 1018.0
20260506231533 16 161 3.2 14.5 0.00 0.00 0.00 52 1018.3
20260506230026 16 175 3.2 19.3 0.00 0.00 0.00 52 1018.4
20260506224528 16 158 4.8 17.7 0.00 0.00 0.00 52 1018.5
20260506223024 16 242 3.2 14.5 0.00 0.00 0.00 52 1018.6
20260506221523 16 203 3.2 12.9 0.00 0.00 0.00 52 1018.4
20260506220021 15 115 4.8 19.3 0.00 0.00 0.00 52 1018.5
20260506214523 15 176 4.8 12.9 0.00 0.00 0.00 53 1018.5
20260506213023 15 146 3.2 14.5 0.00 0.00 0.00 53 1018.4
20260506211521 15 157 1.6 14.5 0.00 0.00 0.00 53 1018.5
20260506210023 15 167 4.8 14.5 0.00 0.00 0.00 52 1018.4
20260506204515 15 92 1.6 16.1 0.00 0.00 0.00 53 1018.4
20260506203015 15 159 3.2 17.7 0.00 0.00 0.00 54 1018.3
20260506201519 14 140 6.4 14.5 0.00 0.00 0.00 54 1018.3
20260506200013 13 173 3.2 16.1 0.00 0.00 0.00 57 1018.3
20260506194520 13 159 0.0 16.1 0.00 0.00 0.00 58 1018.4
20260506193018 14 150 0.0 11.3 0.00 0.00 0.00 57 1018.4
20260506191518 14 159 1.6 12.9 0.00 0.00 0.00 57 1018.3
20260506190023 14 78 1.6 11.3 0.00 0.00 0.00 58 1018.2
20260506184505 13 136 4.8 14.5 0.00 0.00 0.00 59 1018.1
20260506183004 13 97 1.6 11.3 0.00 0.00 0.00 61 1018.1
20260506181503 12 273 0.0 12.9 0.00 0.00 0.00 63 1018.1
20260506180101 12 144 3.2 12.9 0.00 0.00 0.00 63 1018.0
20260506180002 12 144 3.2 12.9 0.00 0.00 0.00 63 1018.1
20260506174503 12 225 1.6 14.5 0.00 0.00 0.00 63 1018.0
20260506173002 12 155 0.0 14.5 0.00 0.00 0.00 63 1018.0
20260506171611 12 111 1.6 14.5 0.00 0.00 0.00 65 1017.9
20260506170104 12 178 4.8 14.5 0.00 0.00 0.00 62 1017.9
20260506164601 12 173 3.2 17.7 0.00 0.00 0.00 62 1017.8
20260506163121 12 106 0.0 12.9 0.00 0.00 0.00 64 1017.6
20260506161550 12 174 1.6 9.7 0.00 0.00 0.00 65 1017.5
20260506160050 11 159 4.8 16.1 0.00 0.00 0.00 65 1017.5
20260506154552 11 170 0.0 6.4 0.00 0.00 0.00 66 1017.2
20260506153042 11 134 3.2 16.1 0.00 0.00 0.00 67 1017.1
20260506151541 11 159 1.6 11.3 0.00 0.00 0.00 68 1016.9
20260506150034 10 80 4.8 12.9 0.00 0.00 0.00 70 1016.8
20260506144528 10 125 1.6 16.1 0.00 0.00 0.00 71 1016.6
20260506143026 10 101 0.0 16.1 0.00 0.00 0.00 71 1016.5
20260506141521 10 135 1.6 12.9 0.00 0.00 0.00 70 1016.3
20260506140028 10 178 3.2 12.9 0.00 0.00 0.00 70 1016.1
20260506134524 10 106 3.2 14.5 0.00 0.00 0.00 70 1015.9
20260506133022 10 178 0.0 16.1 0.00 0.00 0.00 69 1015.6
20260506131521 10 142 1.6 16.1 0.00 0.00 0.00 69 1015.5
20260506130021 10 140 1.6 17.7 0.00 0.00 0.00 70 1015.3
20260506124524 10 111 1.6 12.9 0.00 0.00 0.00 70 1015.2
20260506123022 10 188 1.6 11.3 0.00 0.00 0.00 69 1015.1
20260506121520 10 97 0.0 11.3 0.00 0.00 0.00 70 1014.9
20260506120018 10 106 1.6 9.7 0.00 0.00 0.00 69 1014.6
20260506114510 10 100 3.2 14.5 0.00 0.00 0.00 69 1014.5
20260506113009 10 165 3.2 14.5 0.00 0.00 0.00 68 1014.2
20260506111515 11 159 1.6 16.1 0.00 0.00 0.00 69 1014.1
20260506110009 11 150 4.8 17.7 0.00 0.00 0.00 70 1014.0
20260506104508 11 37 3.2 17.7 0.00 0.00 0.00 69 1013.9
20260506103008 11 128 3.2 20.9 0.00 0.00 0.00 69 1013.9
20260506101506 11 113 1.6 16.1 0.00 0.00 0.00 69 1013.8
20260506100006 11 153 1.6 11.3 0.00 0.00 0.00 68 1013.7
20260506094509 11 137 3.2 12.9 0.00 0.00 0.00 68 1013.5
20260506093008 12 225 0.0 9.7 0.00 0.00 0.00 68 1013.2
20260506091506 12 129 0.0 8.0 0.00 0.00 0.00 67 1013.2
20260506090004 12 73 1.6 12.9 0.00 0.00 0.00 67 1013.0
20260506084630 12 137 3.2 12.9 0.00 0.00 0.00 67 1012.8
20260506083058 12 177 3.2 17.7 0.00 0.00 0.00 67 1012.7
20260506081610 13 100 0.0 14.5 0.00 0.00 0.00 67 1012.7
20260506073056 13 146 3.2 12.9 0.00 0.00 0.00 67 1012.3
20260506071555 14 262 3.2 24.1 0.00 0.00 0.00 67 1012.3
20260506061555 15 104 3.2 9.7 0.00 0.00 0.00 66 1011.9
20260506050113 17 99 3.2 14.5 0.00 0.00 0.00 59 1010.9
20260506044556 18 159 0.0 16.1 0.00 0.00 0.00 59 1010.7
20260506043058 18 196 1.6 16.1 0.00 0.00 0.00 59 1010.4
20260506041602 18 78 1.6 12.9 0.00 0.00 0.00 58 1010.1
20260506040054 18 153 3.2 19.3 0.00 0.00 0.00 58 1010.0
20260506034558 18 107 3.2 12.9 0.00 0.00 0.00 58 1009.8
20260506033055 19 184 1.6 8.0 0.00 0.00 0.00 57 1009.8
20260506031555 20 232 0.0 17.7 0.00 0.00 0.00 55 1009.7
20260506030053 20 187 3.2 12.9 0.00 0.00 0.00 53 1009.7
20260506024550 20 69 1.6 12.9 0.00 0.00 0.00 53 1009.6
20260506023105 21 166 1.6 17.7 0.00 0.00 0.00 52 1009.4
20260506021549 21 127 6.4 16.1 0.00 0.00 0.00 51 1009.4
20260506020053 21 106 4.8 14.5 0.00 0.00 0.00 50 1009.4